FW6605 Weather Reports


time (UTC)temp
F
wind
direction
speed
knots
gust
knots
rain 1hr
in
rain 24hr
in
rain mn
in
humidity
%
barometer
mb
20260906211606 91 121 8.7 17.4 0.00 0.00 0.00 30 1018.9
20260906210111 92 360 3.5 13.9 0.00 0.00 0.00 31 1019.0
20260906204605 90 124 5.2 12.2 0.00 0.00 0.00 33 1019.1
20260906203113 90 120 7.0 14.8 0.00 0.00 0.00 33 1019.4
20260906201607 90 102 7.0 14.8 0.00 0.00 0.00 36 1019.5
20260906194626 88 148 7.0 11.3 0.00 0.00 0.00 38 1019.8
20260906193121 88 92 7.0 15.6 0.00 0.00 0.00 38 1020.0
20260906191608 88 360 7.8 15.6 0.00 0.00 0.00 38 1020.2
20260906190109 88 360 8.7 13.9 0.00 0.00 0.00 39 1020.5
20260906184612 88 128 2.6 13.0 0.00 0.00 0.00 38 1020.8
20260906183117 87 120 3.5 9.6 0.00 0.00 0.00 40 1021.0
20260906181636 87 360 3.5 11.3 0.00 0.00 0.00 39 1021.4
20260906180107 86 116 4.3 11.3 0.00 0.00 0.00 39 1021.6
20260906174607 84 40 0.9 8.7 0.00 0.00 0.00 43 1021.8
20260906173105 85 0 3.5 8.7 0.00 0.00 0.00 41 1022.1
20260906171611 84 360 2.6 11.3 0.00 0.00 0.00 43 1022.1
20260906170114 84 360 6.1 11.3 0.00 0.00 0.00 42 1022.2
20260906164608 83 360 1.7 9.6 0.00 0.00 0.00 43 1022.5
20260906163107 83 360 5.2 9.6 0.00 0.00 0.00 42 1022.6
20260906161602 82 360 0.0 7.8 0.00 0.00 0.00 44 1022.6
20260906160110 80 79 6.1 10.4 0.00 0.00 0.00 44 1022.7
20260906154605 80 105 6.1 10.4 0.00 0.00 0.00 48 1022.5
20260906153105 79 75 4.3 9.6 0.00 0.00 0.00 48 1022.5
20260906151606 77 360 3.5 9.6 0.00 0.00 0.00 51 1022.6
20260906150105 77 360 4.3 8.7 0.00 0.00 0.00 52 1022.4
20260906144614 76 101 2.6 6.1 0.00 0.00 0.00 57 1022.5
20260906143112 74 94 2.6 5.2 0.00 0.00 0.00 59 1022.5
20260906141601 71 360 0.9 4.3 0.00 0.00 0.00 62 1022.4
20260906140107 68 360 0.9 2.6 0.00 0.00 0.00 66 1022.4
20260906134605 66 360 1.7 4.3 0.00 0.00 0.00 67 1022.2
20260906133107 63 360 2.6 4.3 0.00 0.00 0.00 71 1022.0
20260906131559 62 360 0.0 2.6 0.00 0.00 0.00 73 1021.6
20260906130108 61 360 2.6 7.8 0.00 0.00 0.00 75 1021.4
20260906124601 59 360 4.3 7.0 0.00 0.00 0.00 77 1021.3
20260906123108 59 360 3.5 4.3 0.00 0.00 0.00 78 1021.4
20260906121605 59 360 2.6 4.3 0.00 0.00 0.00 78 1021.1
20260906120112 58 360 1.7 3.5 0.00 0.00 0.00 77 1021.1
20260906114601 59 360 2.6 5.2 0.00 0.00 0.00 76 1020.9
20260906113058 60 360 3.5 5.2 0.00 0.00 0.00 74 1021.0
20260906111605 61 360 3.5 5.2 0.00 0.00 0.00 78 1020.9
20260906110104 60 360 1.7 3.5 0.00 0.00 0.00 76 1021.1
20260906104607 62 360 1.7 4.3 0.00 0.00 0.00 73 1020.9
20260906103105 64 360 2.6 5.2 0.00 0.00 0.00 72 1021.0
20260906101607 64 360 4.3 7.0 0.00 0.00 0.00 72 1020.9
20260906100105 65 360 3.5 7.8 0.00 0.00 0.00 71 1021.0
20260906094614 64 360 4.3 7.0 0.00 0.00 0.00 72 1021.0
20260906093133 64 360 3.5 5.2 0.00 0.00 0.00 71 1020.9
20260906091612 65 360 4.3 7.8 0.00 0.00 0.00 71 1020.9
20260906090100 65 360 3.5 7.8 0.00 0.00 0.00 71 1021.0
20260906084605 64 360 2.6 4.3 0.00 0.00 0.00 71 1021.3
20260906083102 65 360 0.9 3.5 0.00 0.00 0.00 69 1021.3
20260906081609 66 360 4.3 7.8 0.00 0.00 0.00 69 1021.3
20260906080105 65 360 6.1 8.7 0.00 0.00 0.00 70 1020.9
20260906074558 65 360 7.0 9.6 0.00 0.00 0.00 69 1020.6
20260906073104 64 360 7.0 9.6 0.00 0.00 0.00 72 1020.7
20260906071607 64 360 1.7 5.2 0.00 0.00 0.00 70 1020.7
20260906070104 64 360 4.3 7.0 0.00 0.00 0.00 69 1020.7
20260906064556 66 360 3.5 7.0 0.00 0.00 0.00 66 1020.8
20260906063106 66 360 4.3 7.0 0.00 0.00 0.00 65 1020.9
20260906061606 68 360 3.5 5.2 0.00 0.00 0.00 63 1020.8
20260906060105 68 360 0.9 2.6 0.00 0.00 0.00 62 1021.0
20260906054611 69 0 0.0 5.2 0.00 0.00 0.00 60 1021.1
20260906053105 69 360 2.6 4.3 0.00 0.00 0.00 62 1021.0
20260906051619 69 360 3.5 5.2 0.00 0.00 0.00 60 1021.3
20260906050124 70 360 2.6 7.0 0.00 0.00 0.00 57 1021.0
20260906044607 71 360 3.5 7.0 0.00 0.00 0.00 56 1020.9
20260906043109 71 360 2.6 7.0 0.00 0.00 0.00 56 1020.8
20260906041604 71 360 2.6 5.2 0.00 0.00 0.00 55 1020.6
20260906040106 73 360 0.9 2.6 0.00 0.00 0.00 51 1020.8
20260906034608 74 360 1.7 3.5 0.00 0.00 0.00 50 1020.6
20260906033107 76 119 2.6 10.4 0.00 0.00 0.00 48 1020.6
20260906031606 76 360 4.3 8.7 0.00 0.00 0.00 49 1020.4
20260906024605 78 119 5.2 9.6 0.00 0.00 0.00 48 1019.7
20260906023104 79 126 2.6 11.3 0.00 0.00 0.00 42 1019.5
20260906021602 80 360 0.9 4.3 0.00 0.00 0.00 34 1019.3
20260906014649 80 0 0.0 0.0 0.00 0.00 0.00 33 1019.0
20260906013105 83 0 0.0 4.3 0.00 0.00 0.00 31 1018.7
20260906011606 85 0 0.9 4.3 0.00 0.00 0.00 29 1018.6
20260906010105 87 360 6.1 12.2 0.00 0.00 0.00 27 1018.6
20260906004612 89 360 7.0 11.3 0.00 0.00 0.00 26 1018.7
20260906003115 89 360 9.6 13.9 0.00 0.00 0.00 26 1018.8
20260906001605 88 360 7.8 10.4 0.00 0.00 0.00 27 1018.9
20260906000105 87 360 6.1 10.4 0.00 0.00 0.00 28 1019.0
20260905234612 88 360 8.7 13.0 0.00 0.00 0.00 27 1018.8
20260905233103 88 360 7.0 13.9 0.00 0.00 0.00 26 1018.7
20260905231608 89 299 9.6 14.8 0.00 0.00 0.00 26 1018.7
20260905230115 89 360 11.3 16.5 0.00 0.00 0.00 26 1018.7
20260905224614 90 344 14.8 19.1 0.00 0.00 0.00 26 1018.6
20260905223112 89 360 11.3 17.4 0.00 0.00 0.00 26 1018.7
20260905221617 90 24 12.2 16.5 0.00 0.00 0.00 26 1018.7
20260905220108 91 96 7.8 12.2 0.00 0.00 0.00 25 1018.8
20260905214610 91 34 9.6 16.5 0.00 0.00 0.00 25 1018.8
20260905213106 91 94 10.4 18.2 0.00 0.00 0.00 25 1018.7